User: anonymous   Login
Location: *
(38.3914°N, 75.0697°W)
Time: 07:15:32
(UTC+00:00)
Language:

BEESAT 2 - Orbit

View from above orbital plane
View from above orbital plane
View from above satellite
View from above satellite

Ground track
Ground track

The orbit data is extracted from the following two-line orbital elements,

1 39136U 13015G   21130.90710367  .00000846  00000-0  50116-4 0  9997
2 39136  64.8749 329.3658 0026186 249.1608 110.6714 15.18636363444791
Epoch (UTC): 10 May 2021 21:46:13
Eccentricity: 0.0026186
inclination: 64.8749°
perigee height: 492 km
apogee height: 528 km
right ascension of ascending node: 329.3658°
argument of perigee: 249.1608°
revolutions per day: 15.18636363
mean anomaly at epoch: 110.6714°
orbit number at epoch: 44479

The dashed part of the orbit path shows where the satellite is in the earth's shadow,  

DLR